Location: Grasslands National Park East Block
(49.0708°N, 106.5295°W)
Time: 22:41:35
(UTC-06:00)

Vanguard 1 Rocket - Pass Details

Date: 24 September 2019
Orbit: 650 x 4226 km, 34.3° (Epoch: 17 October)

Event Time Altitude Azimuth Distance (km) Brightness Sun altitude
Rises 13:36:30 0° 168° (SSE) 8,286 13.0 39.7°
Reaches altitude 10° 13:51:48 10° 137° (SE) 7,386 12.5 39.0°
Maximum altitude 13:55:29 11° 129° (SE) 7,262 12.3 38.8°
Drops below altitude 10° 13:59:05 10° 120° (ESE) 7,189 12.2 38.6°
Sets 14:12:13 0° 90° (E) 7,438 11.9 37.8°
